Date String (YYYY-MM-DD hh:mm:ss) UTC,Instrument flags,Ambient pressure (hPa),Sample flow (lpm),Bypass flow (lpm),Sample temperature (°C),Ambient temperature (°C),ASC tube jacket temperature (°C),LED temperature (°C),Box temperature (°C),Sample RH (%),Span deviation,Mass concentration (μg/m³),Mass concentration (μg/m³),Mass concentration (μg/m³)
DateTimeUTC,F1_M11,P_M11,Q1_M11,Q2_M11,T1_M11,T2_M11,T3_M11,T4_M11,T5_M11,U1_M11,ZSPAN_M11,X0_M11,X2_M11,X1_M11
2022-09-02 16:00:00,,0829.5,5.02,0.00,29.9,28.3,00.0,38.6,31.7,19.2,0000.0,0016.12,0005.70,0004.76
2022-09-02 16:01:00,,0829.6,5.00,0.00,30.0,28.5,00.0,38.7,31.8,19.0,0000.0,0017.15,0005.71,0004.75
2022-09-02 16:02:00,,0829.6,5.00,0.00,30.0,28.7,00.0,38.7,31.8,19.6,0000.0,0017.35,0005.69,0004.74
2022-09-02 16:03:00,,0829.6,4.98,0.00,30.0,28.8,00.0,38.7,31.9,19.1,0000.0,0017.42,0005.70,0004.74
2022-09-02 16:04:00,,0829.7,5.01,0.00,30.0,28.9,00.0,38.7,31.9,19.1,0000.0,0017.87,0005.76,0004.74
2022-09-02 16:05:00,,0829.6,4.99,0.00,30.1,28.2,00.0,38.7,31.9,19.3,0000.0,0017.96,0005.79,0004.75
2022-09-02 16:06:00,,0829.6,5.00,0.00,30.0,27.2,00.0,38.7,31.8,18.1,0000.0,0017.65,0005.79,0004.76
2022-09-02 16:07:00,,0829.7,4.99,0.00,30.0,27.2,00.0,38.7,31.7,17.9,0000.0,0018.08,0005.83,0004.77
2022-09-02 16:08:00,,0829.7,5.00,0.00,29.9,27.4,00.0,38.6,31.7,18.0,0000.0,0017.84,0005.87,0004.76
2022-09-02 16:09:00,,0829.7,5.01,0.00,29.9,27.7,00.0,38.6,31.7,19.4,0000.0,0017.64,0005.86,0004.77
2022-09-02 16:10:00,,0829.8,5.00,0.00,29.9,28.0,00.0,38.6,31.7,19.4,0000.0,0016.82,0005.89,0004.78
2022-09-02 16:11:00,,0829.8,5.00,0.00,29.9,28.2,00.0,38.6,31.7,19.1,0000.0,0016.79,0005.88,0004.75
2022-09-02 16:12:00,,0829.8,5.00,0.00,29.9,28.4,00.0,38.6,31.7,18.2,0000.0,0016.00,0005.88,0004.74
2022-09-02 16:13:00,,0829.8,5.00,0.00,30.0,28.6,00.0,38.7,31.8,18.5,0000.0,0014.40,0005.89,0004.74
2022-09-02 16:14:00,,0829.8,5.01,0.00,30.0,28.7,00.0,38.7,31.9,18.7,0000.0,0014.26,0005.85,0004.71
2022-09-02 16:15:00,,0829.8,5.00,0.00,30.0,28.7,00.0,38.7,31.9,18.2,0000.0,0013.47,0005.74,0004.69
2022-09-02 16:16:00,,0829.8,4.99,0.00,30.0,27.7,00.0,38.7,31.9,18.7,0000.0,0012.99,0005.67,0004.66
2022-09-02 16:17:00,,0829.8,4.99,0.00,30.0,27.0,00.0,38.6,31.8,19.9,0000.0,0013.61,0005.71,0004.66
2022-09-02 16:18:00,,0829.8,5.00,0.00,29.9,27.2,00.0,38.6,31.7,18.6,0000.0,0013.09,0005.69,0004.64
2022-09-02 16:19:00,,0829.8,5.00,0.00,29.9,27.4,00.0,38.6,31.7,17.7,0000.0,0012.46,0005.64,0004.64
2022-09-02 16:20:00,,0829.8,4.99,0.00,29.9,27.7,00.0,38.6,31.6,18.6,0000.0,0012.35,0005.61,0004.62
2022-09-02 16:21:00,,0829.8,5.01,0.00,29.9,28.0,00.0,38.6,31.7,18.0,0000.0,0012.31,0005.62,0004.60
2022-09-02 16:22:00,,0829.8,5.01,0.00,29.9,28.2,00.0,38.6,31.7,18.0,0000.0,0012.87,0005.60,0004.59
2022-09-02 16:23:00,,0829.8,5.01,0.00,29.9,28.4,00.0,38.6,31.8,18.5,0000.0,0012.71,0005.52,0004.57
2022-09-02 16:24:00,,0829.8,4.99,0.00,29.9,28.6,00.0,38.6,31.8,16.9,0000.0,0013.18,0005.46,0004.54
2022-09-02 16:25:00,,0829.9,5.00,0.00,30.0,28.7,00.0,38.6,31.9,16.5,0000.0,0013.03,0005.40,0004.51
2022-09-02 16:26:00,,0829.9,5.00,0.00,30.0,27.8,00.0,38.6,31.8,15.4,0000.0,0012.61,0005.37,0004.48
2022-09-02 16:27:00,,0829.9,5.01,0.00,29.9,26.9,00.0,38.6,31.6,15.5,0000.0,0012.92,0005.37,0004.46
2022-09-02 16:28:00,,0829.9,5.00,0.00,29.9,27.0,00.0,38.6,31.7,16.4,0000.0,0012.74,0005.27,0004.43
2022-09-02 16:29:00,,0829.8,5.00,0.00,29.8,27.3,00.0,38.5,31.6,18.2,0000.0,0013.68,0005.22,0004.41
2022-09-02 16:30:00,,0829.8,5.01,0.00,29.8,27.6,00.0,38.5,31.6,17.9,0000.0,0014.13,0005.21,0004.39
2022-09-02 16:31:00,,0829.9,5.00,0.00,29.8,27.9,00.0,38.5,31.6,17.5,0000.0,0013.93,0005.18,0004.37
2022-09-02 16:32:00,,0829.9,5.01,0.00,29.8,28.1,00.0,38.5,31.6,16.6,0000.0,0013.49,0005.11,0004.35
2022-09-02 16:33:00,,0829.9,4.98,0.00,29.8,28.3,00.0,38.5,31.7,16.8,0000.0,0013.40,0005.08,0004.34
2022-09-02 16:34:00,,0829.8,5.00,0.00,29.9,28.5,00.0,38.6,31.8,16.6,0000.0,0013.48,0005.13,0004.33
2022-09-02 16:35:00,,0829.8,5.00,0.00,29.9,28.3,00.0,38.6,31.8,16.4,0000.0,0013.21,0005.13,0004.33
2022-09-02 16:36:00,,0829.8,5.00,0.00,29.9,27.3,00.0,38.5,31.6,15.8,0000.0,0013.75,0005.13,0004.34
2022-09-02 16:37:00,,0829.9,5.00,0.00,29.8,26.9,00.0,38.5,31.6,15.6,0000.0,0014.32,0005.11,0004.34
2022-09-02 16:38:00,,0829.8,5.01,0.00,29.8,27.1,00.0,38.5,31.6,15.5,0000.0,0014.63,0005.08,0004.34
2022-09-02 16:39:00,,0829.8,5.01,0.00,29.8,27.4,00.0,38.5,31.5,15.8,0000.0,0014.33,0005.11,0004.34
2022-09-02 16:40:00,,0829.8,5.00,0.00,29.7,27.7,00.0,38.4,31.5,16.0,0000.0,0013.54,0005.12,0004.33
2022-09-02 16:41:00,,0829.9,5.00,0.00,29.8,27.9,00.0,38.4,31.5,16.4,0000.0,0013.50,0005.13,0004.32
2022-09-02 16:42:00,,0829.9,5.01,0.00,29.8,28.2,00.0,38.5,31.6,16.4,0000.0,0013.59,0005.16,0004.31
2022-09-02 16:43:00,,0829.8,5.00,0.00,29.8,28.4,00.0,38.5,31.7,16.5,0000.0,0013.73,0005.20,0004.32
2022-09-02 16:44:00,,0829.8,4.99,0.00,29.8,28.5,00.0,38.5,31.7,16.4,0000.0,0013.84,0005.22,0004.34
2022-09-02 16:45:00,,0829.8,4.99,0.00,29.8,28.0,00.0,38.5,31.7,16.5,0000.0,0014.20,0005.22,0004.36
2022-09-02 16:46:00,,0829.9,5.00,0.00,29.8,26.9,00.0,38.5,31.5,16.4,0000.0,0014.04,0005.26,0004.39
2022-09-02 16:47:00,,0829.9,5.01,0.00,29.8,26.9,00.0,38.4,31.5,16.6,0000.0,0014.11,0005.31,0004.41
2022-09-02 16:48:00,,0829.9,5.00,0.00,29.7,27.2,00.0,38.4,31.4,16.9,0000.0,0013.75,0005.39,0004.43
2022-09-02 16:49:00,,0829.9,4.99,0.00,29.7,27.4,00.0,38.4,31.4,16.8,0000.0,0013.50,0005.43,0004.45
2022-09-02 16:50:00,,0829.9,5.00,0.00,29.7,27.7,00.0,38.4,31.4,16.9,0000.0,0012.70,0005.46,0004.48
2022-09-02 16:51:00,,0829.9,5.01,0.00,29.7,28.0,00.0,38.4,31.5,16.9,0000.0,0012.63,0005.52,0004.51
2022-09-02 16:52:00,,0829.9,5.00,0.00,29.7,28.2,00.0,38.4,31.5,16.8,0000.0,0011.78,0005.51,0004.55
2022-09-02 16:53:00,,0830.1,4.99,0.00,29.7,28.4,00.0,38.4,31.6,17.0,0000.0,0011.62,0005.51,0004.58
2022-09-02 16:54:00,,0830.1,5.01,0.00,29.8,28.3,00.0,38.4,31.7,17.1,0000.0,0011.62,0005.55,0004.62
2022-09-02 16:55:00,,0830.1,5.00,0.00,29.8,27.4,00.0,38.4,31.6,16.9,0000.0,0011.40,0005.59,0004.67
2022-09-02 16:56:00,,0830.1,5.00,0.00,29.7,26.8,00.0,38.4,31.5,16.9,0000.0,0011.32,0005.57,0004.69
2022-09-02 16:57:00,,0830.1,5.01,0.00,29.7,27.1,00.0,38.4,31.5,16.9,0000.0,0011.40,0005.54,0004.71
2022-09-02 16:58:00,,0830.1,5.00,0.00,29.7,27.3,00.0,38.3,31.4,17.1,0000.0,0010.93,0005.51,0004.72
2022-09-02 16:59:00,,0830.1,5.00,0.00,29.7,27.6,00.0,38.3,31.4,17.1,0000.0,0010.92,0005.52,0004.74
